Wind_Speed
46 45 46 48 46 44 45 46 50 51 52 52 53 55 55 56 56 55 55 55 55 55 54 55 55 56 56 56 57 59 59 60 62 64 65 66 67 67 67 67 67 67 67 67
51 49 51 53 48 46 47 48 50 53 54 53 56 57 58 59 59 59 58 57 57 57 57 56 57 57 57 58 59 60 61 62 64 66 66 67 67 67 67 66 66 65 65 64
55 53 56 55 49 50 50 51 52 55 56 58 58 59 60 60 60 60 59 59 58 58 58 58 59 59 60 61 62 63 64 65 65 66 67 67 66 66 65 64 63 62 62 62
56 56 58 54 52 52 54 53 54 56 58 60 60 60 61 61 61 60 60 59 59 59 59 60 61 62 62 63 64 65 65 66 66 66 65 65 64 63 62 60 60 60 60 59
56 57 57 54 52 54 56 55 54 57 58 59 59 58 59 60 61 61 61 61 61 61 61 60 60 61 62 62 63 64 65 64 64 63 63 62 60 59 58 57 58 58 57 56
51 54 55 52 52 53 53 54 54 56 57 57 57 58 57 57 59 60 60 61 61 61 60 58 58 60 60 61 61 61 61 61 60 59 59 58 57 56 56 56 56 56 54 54
49 51 51 50 51 52 53 54 54 55 56 56 56 56 55 55 55 56 56 56 57 57 56 56 56 56 56 56 57 58 58 58 57 56 56 54 53 53 54 54 54 53 53 53
47 49 49 49 50 50 51 52 53 54 54 54 53 52 52 52 52 51 50 51 52 54 54 53 54 54 54 53 53 53 53 53 52 52 52 51 51 51 51 51 51 51 51 52
46 46 46 48 49 49 50 51 50 51 50 50 49 49 49 49 47 46 46 47 48 49 49 50 51 51 51 51 50 49 49 49 50 50 49 49 49 50 50 49 49 49 50 50
46 45 45 47 47 47 48 48 48 49 48 48 48 47 46 44 43 43 43 44 44 44 45 45 47 48 50 49 49 49 49 49 49 49 48 49 49 49 49 48 48 48 48 48
47 46 47 46 47 48 48 48 48 47 46 46 45 43 42 42 42 42 42 43 43 44 45 45 45 47 48 49 50 50 51 51 51 50 50 50 49 49 48 48 48 48 48 47
49 49 51 49 49 49 48 47 46 45 44 44 43 42 42 42 43 43 43 44 43 44 45 46 48 49 50 51 51 52 52 52 52 52 51 51 50 50 50 49 48 47 47 46
52 52 52 51 51 50 50 49 47 46 45 44 43 43 44 44 44 44 45 46 46 47 48 49 50 52 52 53 53 53 53 53 52 51 51 51 51 51 50 50 49 47 46 44
53 53 53 52 52 52 51 50 49 48 47 46 46 46 47 47 47 47 48 49 49 50 50 52 53 53 54 54 54 53 53 53 53 52 52 52 52 52 51 50 48 46 45 43
55 55 54 53 53 52 52 52 51 50 49 49 49 50 50 50 50 50 51 52 52 53 54 54 55 55 55 54 54 54 55 55 55 55 55 54 54 53 51 49 46 44 43 41
56 56 55 54 53 52 52 52 51 51 51 51 51 51 51 51 51 52 53 54 55 55 55 55 55 54 55 55 55 55 56 56 56 56 56 55 53 52 49 46 44 42 40 38
55 54 54 53 52 52 52 52 52 52 52 52 51 52 53 53 54 54 55 55 56 56 56 57 56 57 57 57 57 57 58 57 57 56 55 54 52 50 47 44 42 40 38 36
52 52 52 52 51 51 51 51 52 52 52 53 53 53 54 55 55 55 55 55 56 56 57 57 57 57 57 58 59 59 58 57 56 56 55 53 50 47 44 42 39 36 35 34
49 49 50 50 51 51 51 52 52 53 54 54 53 53 54 55 55 55 56 56 57 56 56 56 56 56 56 58 58 57 56 55 55 54 54 52 48 45 42 38 36 33 32 31
48 48 49 50 50 51 51 52 52 53 53 53 53 53 53 54 55 55 55 55 56 56 55 55 55 55 56 57 58 57 56 56 55 53 52 49 45 42 38 35 33 31 29 29
47 48 48 49 50 50 51 51 51 51 51 51 52 52 52 52 52 53 53 53 52 53 52 52 54 56 57 57 57 57 56 55 53 51 49 45 41 38 34 32 30 28 26 26
46 47 47 48 49 49 49 49 49 49 49 50 50 51 51 51 51 51 51 51 50 50 50 51 53 55 55 55 55 54 54 53 51 48 44 41 37 33 30 28 26 24 24 24
45 45 46 47 47 47 46 47 48 49 49 49 49 49 49 49 48 47 45 45 46 47 49 50 52 52 52 53 53 52 51 49 46 43 40 36 32 28 25 23 22 21 21 20
44 44 45 45 45 45 45 45 46 46 46 45 45 45 45 44 43 44 44 44 45 46 48 49 50 50 51 52 51 50 48 45 42 38 34 29 25 21 19 19 18 18 18 17
43 43 43 44 44 44 44 44 44 42 42 41 41 41 42 42 41 42 42 43 44 45 47 48 48 49 49 49 48 47 44 41 37 32 27 21 17 15 15 16 15 15 15 14
43 43 43 43 43 43 42 41 40 39 38 37 37 38 39 40 41 41 42 42 43 44 46 46 47 47 47 46 44 42 39 36 31 25 18 13 11 11 12 13 13 12 12 10
43 43 42 42 42 42 40 39 38 36 36 35 35 36 38 38 39 40 40 40 41 43 44 44 44 44 42 40 38 36 33 28 22 16 11 8 8 8 9 10 10 9 8 6
Wind_Direction
287 288 287 287 288 291 293 293 293 294 294 297 296 295 296 296 296 297 296 296 296 296 296 295 294 293 292 292 292 293 294 296 297 299 301 303 305 307 309 310 312 314 316 317
286 287 286 286 290 292 291 292 292 292 293 294 293 294 295 296 297 298 298 298 298 298 298 297 296 295 293 293 293 293 294 295 297 299 302 304 306 307 309 310 312 313 315 316
287 286 286 287 290 289 289 289 290 291 292 292 292 293 294 296 297 299 299 300 300 300 299 298 297 296 295 294 294 295 296 297 298 300 302 304 305 307 309 310 312 314 315 315
290 290 289 293 293 293 291 290 291 291 291 291 293 295 296 297 299 300 301 301 301 301 300 298 297 296 295 295 295 296 297 298 299 301 302 303 305 308 309 311 313 314 315 315
291 292 294 296 297 294 293 293 293 292 292 293 294 295 296 298 299 300 301 301 301 300 299 299 298 297 297 297 297 297 297 299 300 301 303 304 306 308 309 311 312 313 314 315
292 293 296 300 298 296 295 295 295 294 294 295 296 297 299 298 298 299 299 299 299 299 300 300 299 298 299 299 298 298 299 299 300 301 303 305 307 309 310 311 312 313 314 314
297 297 300 302 299 298 297 298 296 296 295 296 297 300 303 303 303 301 299 299 299 300 301 301 300 301 302 302 301 301 301 302 302 303 304 305 307 309 310 311 312 313 314 314
300 301 303 301 300 299 298 297 296 296 296 298 300 302 303 304 304 303 302 302 302 301 301 302 302 303 305 305 305 305 305 305 305 305 305 306 308 309 311 312 312 313 313 314
302 304 304 302 301 300 299 299 299 299 299 299 300 302 303 304 305 305 304 304 305 304 304 304 303 304 306 306 306 307 308 309 308 308 308 308 308 309 311 312 313 313 313 314
301 304 302 301 301 301 301 300 301 301 301 300 301 303 304 306 307 308 308 309 309 309 309 308 307 306 307 307 308 308 308 309 309 309 309 309 309 310 311 312 313 314 314 314
298 299 298 300 300 299 299 300 300 300 299 300 301 303 305 306 306 307 309 310 310 311 310 310 309 308 308 308 307 308 308 308 307 307 307 308 308 309 311 311 312 313 314 314
296 297 297 299 299 299 299 299 299 299 299 299 300 301 303 304 306 306 307 309 310 311 310 309 308 308 308 307 307 307 307 307 306 306 306 306 307 308 309 310 311 312 313 313
292 293 295 297 296 296 296 296 297 297 297 298 299 300 301 302 304 305 305 306 308 309 309 309 309 309 308 308 307 307 307 306 305 305 305 305 305 306 307 308 309 310 311 310
289 290 291 293 293 293 294 294 294 294 295 296 297 298 300 301 302 303 304 305 306 307 307 307 308 309 308 308 307 307 306 306 305 304 304 303 303 303 303 305 306 306 307 307
288 289 290 291 291 291 292 292 292 292 293 294 296 298 299 300 302 303 304 304 305 306 306 307 308 308 307 307 306 306 306 305 304 303 302 302 302 302 301 301 302 302 303 304
285 287 288 289 289 290 290 290 290 291 292 293 295 297 298 300 301 302 303 304 305 306 306 307 307 307 307 306 306 306 306 305 303 303 302 301 301 301 300 298 298 299 300 301
284 285 286 287 287 288 288 288 289 290 291 292 294 295 296 298 300 301 302 303 305 305 306 306 307 307 306 306 307 307 306 305 304 303 302 301 300 299 299 297 295 295 296 297
283 283 284 285 285 286 287 288 289 290 291 292 293 295 296 298 299 300 301 302 304 304 305 306 306 306 306 306 307 307 306 305 304 303 302 301 299 296 295 294 292 292 293 294
282 283 283 284 285 286 287 288 289 290 291 292 294 295 296 298 299 300 302 303 304 304 305 305 306 306 307 308 308 307 306 305 304 303 302 301 298 295 292 290 288 288 289 290
283 283 284 284 285 287 288 288 289 291 292 294 295 296 297 299 301 302 304 305 305 305 306 306 307 307 308 309 308 308 307 306 304 302 301 299 296 293 289 285 284 284 284 286
285 285 286 286 287 288 289 290 291 293 294 295 297 298 300 301 303 304 305 305 306 307 308 308 308 309 310 311 310 309 308 308 306 303 300 297 293 289 284 280 278 277 278 281
286 287 288 288 288 289 290 292 293 294 295 297 299 300 302 303 304 305 306 306 307 308 309 310 311 312 313 314 313 312 311 310 308 305 300 295 291 286 280 274 269 269 272 276
288 289 290 290 290 290 291 292 293 295 296 298 299 301 302 304 305 306 307 308 309 311 312 313 314 315 316 318 318 317 315 313 311 308 302 295 289 281 273 266 261 261 266 273
289 289 290 290 290 291 292 293 295 296 298 299 301 302 303 305 307 308 310 311 312 313 315 316 317 318 318 320 320 319 319 317 314 310 304 295 286 273 262 255 252 254 262 268
288 289 290 291 291 292 293 294 296 297 298 300 301 303 305 307 308 310 311 312 314 315 317 318 318 319 320 321 321 320 320 319 316 310 303 294 280 262 249 244 244 249 256 261
288 289 290 291 293 293 294 296 296 297 298 300 302 303 304 307 309 310 312 313 315 316 319 320 321 322 323 323 323 323 323 321 318 312 302 288 268 250 241 237 234 238 243 253
288 289 290 292 293 295 296 297 297 298 299 301 303 304 305 307 309 310 312 314 316 319 321 322 324 325 327 328 329 331 332 330 325 317 305 282 251 233 225 220 219 223 228 241
Height
5776 5774 5770 5766 5765 5763 5758 5753 5747 5744 5739 5737 5730 5724 5721 5716 5712 5708 5704 5700 5695 5691 5686 5680 5675 5670 5664 5659 5653 5647 5641 5635 5628 5621 5615 5608 5600 5592 5583 5574 5565 5556 5546 5536
5765 5764 5758 5754 5756 5753 5747 5742 5737 5732 5729 5726 5718 5714 5709 5704 5699 5695 5691 5687 5682 5677 5672 5667 5661 5656 5650 5645 5638 5632 5627 5620 5614 5607 5600 5593 5585 5577 5569 5561 5552 5543 5533 5523
5750 5750 5745 5743 5747 5742 5737 5732 5726 5720 5717 5711 5707 5702 5697 5692 5687 5683 5678 5673 5668 5663 5658 5653 5647 5641 5636 5630 5624 5618 5612 5605 5598 5592 5585 5578 5571 5563 5555 5547 5538 5530 5520 5511
5737 5735 5729 5735 5732 5728 5722 5719 5714 5708 5702 5698 5693 5689 5683 5678 5674 5669 5664 5659 5654 5649 5643 5638 5632 5626 5620 5615 5609 5602 5596 5590 5583 5577 5571 5564 5556 5549 5541 5533 5525 5517 5508 5498
5725 5719 5715 5719 5719 5712 5705 5703 5700 5693 5688 5684 5680 5676 5671 5665 5660 5654 5649 5644 5639 5634 5628 5623 5617 5610 5605 5599 5593 5586 5580 5575 5569 5562 5556 5549 5542 5535 5528 5520 5512 5504 5495 5486
5715 5708 5704 5709 5703 5696 5692 5689 5685 5678 5673 5669 5664 5661 5660 5655 5648 5643 5637 5631 5624 5619 5613 5608 5601 5595 5589 5583 5577 5571 5565 5559 5553 5547 5541 5535 5529 5522 5515 5507 5500 5492 5483 5474
5703 5696 5694 5695 5689 5683 5680 5677 5670 5664 5659 5655 5650 5646 5643 5639 5634 5629 5623 5617 5610 5604 5599 5593 5586 5580 5574 5569 5563 5557 5551 5545 5539 5533 5527 5521 5515 5509 5502 5495 5488 5480 5471 5463
5692 5687 5686 5681 5676 5671 5666 5662 5656 5651 5646 5641 5637 5633 5629 5624 5619 5613 5607 5602 5596 5590 5585 5580 5572 5566 5561 5555 5549 5544 5538 5532 5526 5520 5514 5508 5502 5496 5489 5482 5475 5467 5459 5451
5683 5681 5676 5669 5663 5658 5653 5649 5644 5638 5634 5629 5625 5621 5616 5612 5606 5600 5594 5588 5582 5576 5571 5566 5559 5553 5548 5543 5537 5531 5526 5520 5514 5508 5502 5495 5490 5483 5477 5470 5463 5455 5447 5439
5672 5671 5665 5659 5653 5648 5642 5637 5632 5627 5622 5618 5613 5608 5604 5599 5594 5588 5582 5576 5570 5564 5559 5553 5547 5541 5535 5530 5525 5519 5514 5508 5502 5496 5490 5484 5477 5471 5465 5458 5451 5443 5436 5428
5661 5658 5654 5650 5643 5637 5632 5626 5621 5616 5611 5606 5602 5597 5592 5587 5582 5577 5571 5565 5559 5553 5547 5542 5536 5530 5524 5519 5513 5508 5502 5496 5489 5483 5477 5471 5465 5459 5452 5446 5439 5432 5425 5417
5649 5645 5639 5637 5631 5626 5620 5615 5610 5605 5601 5595 5590 5586 5581 5576 5570 5565 5560 5554 5549 5543 5537 5531 5525 5519 5513 5507 5501 5495 5489 5483 5476 5470 5464 5458 5452 5446 5440 5434 5427 5420 5414 5407
5635 5632 5627 5623 5618 5613 5608 5604 5599 5594 5589 5585 5580 5575 5570 5565 5560 5554 5549 5543 5538 5532 5526 5519 5513 5507 5501 5494 5488 5481 5475 5469 5463 5457 5451 5445 5439 5433 5427 5421 5415 5409 5403 5396
5622 5618 5614 5610 5605 5601 5596 5591 5587 5582 5578 5573 5568 5563 5558 5553 5548 5542 5537 5531 5526 5520 5513 5507 5501 5494 5488 5481 5475 5468 5461 5455 5449 5443 5437 5431 5425 5419 5414 5408 5403 5397 5392 5386
5607 5603 5600 5596 5592 5587 5582 5578 5574 5570 5565 5560 5555 5550 5545 5540 5536 5530 5524 5519 5513 5507 5500 5494 5488 5481 5474 5467 5461 5454 5447 5440 5434 5428 5422 5416 5410 5404 5399 5394 5390 5385 5380 5375
5592 5588 5584 5581 5577 5573 5569 5564 5560 5556 5552 5547 5543 5538 5532 5527 5523 5517 5511 5505 5500 5493 5487 5480 5474 5467 5460 5453 5446 5439 5432 5425 5418 5412 5406 5400 5394 5389 5384 5380 5376 5372 5368 5364
5576 5573 5569 5566 5562 5558 5554 5550 5546 5542 5538 5534 5529 5524 5519 5514 5510 5504 5499 5492 5485 5479 5472 5465 5459 5452 5444 5437 5431 5423 5416 5409 5402 5395 5389 5383 5378 5373 5369 5365 5362 5360 5357 5354
5560 5557 5554 5551 5547 5543 5540 5536 5532 5527 5523 5519 5515 5510 5505 5500 5495 5490 5485 5479 5472 5465 5457 5450 5444 5437 5429 5422 5415 5407 5399 5392 5385 5379 5373 5367 5362 5358 5355 5352 5349 5348 5346 5344
5545 5542 5539 5536 5532 5529 5526 5522 5518 5513 5509 5505 5501 5497 5491 5486 5480 5475 5470 5463 5456 5451 5444 5436 5429 5421 5414 5406 5399 5391 5383 5376 5369 5362 5356 5351 5347 5343 5340 5339 5337 5337 5336 5334
5530 5528 5525 5521 5518 5514 5511 5507 5503 5500 5495 5490 5486 5482 5477 5472 5466 5460 5455 5449 5440 5434 5429 5422 5414 5407 5399 5391 5383 5375 5367 5360 5353 5346 5340 5335 5332 5329 5327 5326 5326 5326 5326 5326
5516 5513 5510 5507 5504 5500 5496 5492 5489 5485 5481 5476 5472 5467 5463 5458 5452 5446 5440 5435 5428 5420 5414 5407 5400 5392 5384 5376 5368 5359 5351 5343 5336 5329 5324 5320 5317 5315 5314 5315 5316 5317 5317 5317
5502 5499 5496 5493 5489 5486 5482 5478 5474 5471 5467 5463 5458 5453 5449 5444 5438 5433 5426 5420 5415 5408 5401 5394 5386 5378 5370 5361 5352 5343 5335 5327 5319 5313 5308 5305 5303 5302 5302 5304 5306 5308 5309 5310
5489 5486 5482 5479 5475 5472 5469 5465 5461 5457 5453 5449 5445 5440 5435 5430 5424 5419 5415 5409 5402 5395 5389 5381 5373 5365 5356 5348 5339 5329 5320 5312 5305 5299 5295 5292 5291 5291 5292 5294 5297 5300 5302 5304
5475 5472 5468 5465 5461 5458 5455 5452 5448 5444 5440 5436 5431 5426 5421 5418 5413 5407 5402 5396 5390 5384 5377 5369 5361 5353 5344 5336 5327 5318 5309 5301 5294 5288 5284 5281 5281 5282 5284 5287 5291 5294 5296 5298
5461 5458 5455 5452 5448 5445 5442 5439 5435 5432 5428 5424 5419 5414 5409 5405 5401 5397 5391 5385 5379 5373 5366 5358 5350 5341 5333 5324 5316 5307 5298 5291 5284 5279 5275 5274 5275 5276 5279 5283 5286 5289 5292 5294
5447 5444 5441 5438 5435 5432 5429 5426 5422 5419 5415 5412 5409 5404 5399 5395 5390 5385 5380 5375 5369 5362 5356 5348 5340 5331 5323 5314 5306 5297 5289 5282 5276 5272 5270 5270 5271 5273 5276 5280 5283 5286 5289 5291
5434 5431 5428 5425 5422 5419 5416 5413 5410 5407 5404 5401 5398 5394 5390 5385 5381 5376 5371 5365 5360 5353 5346 5338 5331 5323 5315 5306 5298 5290 5283 5276 5272 5269 5268 5268 5270 5272 5275 5278 5281 5284 5287 5289